Location: Unspecified
(43.4680°N, 87.1740°E)
Time: 20:36:57
(UTC+00:00)

NOSS 0 Rocket - Pass Details

Date: 06 August 2021
Orbit: 936 x 954 km, 70.0° (Epoch: 22 September)

Event Time Altitude Azimuth Distance (km) Brightness Sun altitude
Rises 16:32:03 0° 331° (NNW) 3,634 8.4 -25.4°
Reaches altitude 10° 16:34:36 10° 330° (NNW) 2,683 7.3 -25.6°
Maximum altitude 16:40:48 72° 247° (WSW) 994 3.9 -26.1°
Enters shadow 16:41:45 61° 193° (SSW) 1,065 3.9 -26.2°
